Location: Chevoux
(46.3801°N, 4.9476°E)
Time: 17:45:56
(UTC+00:00)

Envisat - Pass Details

Date: 03 December 2021
Orbit: 764 x 766 km, 98.2° (Epoch: 16 January)

Event Time Altitude Azimuth Distance (km) Brightness Sun altitude
Rises 06:07:56 0° 1° (N) 3,245 6.0 -9.6°
Reaches altitude 10° 06:10:44 10° 346° (NNW) 2,313 5.1 -9.2°
Maximum altitude 06:14:27 21° 299° (WNW) 1,680 4.2 -8.6°
Drops below altitude 10° 06:18:09 10° 252° (WSW) 2,302 5.0 -8.0°
Sets 06:20:57 0° 237° (WSW) 3,223 5.9 -7.6°
